sat.trackr.live / text

‹ back to catalog

LASARSAT

NORAD 62391 · 2024-247Q

PAYLOAD ACTIVE UNKNOWN

§ Identity

Operator
Country
CZCH
Launch date
2024-12-21
Launch site
AFWTR
Launch vehicle
Mass (kg)
RCS (m²)

Purposes: tech_demo

External: N2YO · Heavens-Above · Gunter

§ Orbital elements

Epoch: 2026-05-25T03:52:33.626784Z

Period
93.22 min
Inclination
44.9756°
Eccentricity
0.0006649
Mean motion
15.44740281 rev/d
Perigee alt
427.6 km
Apogee alt
436.7 km
Semi-major
6,810.3 km
B*
6.7892e-4
RAAN
31.4536°
Arg perigee
203.0784°
Mean anomaly
156.9808°
Rev number
7,975

§ Raw data

LASARSAT1 62391U 24247Q   26145.16150031  .00032240  00000+0  67892-3 0  99902 62391  44.9756  31.4536 0006649 203.0784 156.9808 15.44740281 79750

JSON: /api/v1/satellites/62391 · /tle

For live sub-satellite position, see the globe view (requires WebGL).

§ Visibility from observer

Set your observer location to see the next 7 days of passes ≥ 10°. The values pass through the URL so the page stays shareable.

No JS? Fill the form by hand. The geolocation button needs JavaScript.

§ Radio — SatNOGS DB

ModeDescriptionDownlinkUplink
CW Mode U - CW - Beacon 436.925 MHz
GFSK Mode U - GFSK9k6 - AX.25 G3RUH 436.925 MHz
GFSK Mode U/U - GFSK9k6 - Digipeater - AX.25 436.925 MHz 436.925 MHz

3 transmitters · refreshed weekly from db.satnogs.org